OBJECT B, 60089

Orbit data source: Space-Track

You're viewing an Uncataloged Satellite

Recently launched and/or uncataloged satellites may have evolving metadata. Metadata may include but not limited to: Owner, Maufacturer, Bus, Motor, and Mission.

OBJECT B, 60089 is a satellite owned by CAS (CN) in LEO that was launched on Sat, 22 Jun 2024 UTC via a CHANG ZHENG 2C launch vehicle from the Xichang Space Center, China (XSC). Unknown objects in Earth's orbit typically refer to objects detected orbiting the Earth but have not yet been identified or cataloged. These objects could be anything from previously untracked satellites, spent rocket stages, debris from satellite collisions, or even natural meteoroids temporarily captured by Earth's gravity.

Loading next visibility...
Identifier
60089, 2024-116B
Orbit
LEO
Country
Flag of CNCN / PRC
Related business
Manufacturer
IMI/CAS
Mission
Operational Civil Astronomy
Bus & Motor
HUNTER, Unknown motor
Mass
~20 kg wet, ~20 kg dry
Launch date (UTC)
2024-06-22 (2 years ago)
Launch vehicle
CHANG ZHENG 2C
Launch site
Xichang Space Center, China (XSC)
Object type
Unknown
Shape & HBR
Box + 2 Pan + 1 Rod, 0.3 m
Radar Cross Section
0.098 m², Large (>1 m²)

Expand to show TLE details & history
Last TLE update: 9 hours ago

TLE from 9 hours ago
0 OBJECT B
1 60089U 24116B   26171.45862120  .00001016  00000-0  10557-3 0  9991
2 60089  28.9957  96.8177 0005235  71.9897 288.1267 14.83542069108082
Epoch: 2026-06-20T11:00Z
TLE epoch observation values (Epoch: 2026-06-20T11:00:24.871Z)
Latitude
-0°
Longitude
23.04111°
Altitude
615.365 km
Speed
7.554 km/s
True Right ascension
06h 27m 16s
True Declination
0° 00' 00"
Sunlit
Object was in daylight at epoch
Visualization orbit readout
Latitude
Unknown
Longitude
Unknown
Altitude
Unknown
Speed
Unknown
Apparent Right ascension
Unknown
Apparent Declination
Unknown
Sunlit
N/A
Visualization observer readout
Local Sidereal Time
07:12:46
Azimuth
Unknown
Elevation
Unknown
Doppler factor
Unknown
Orbital elements
Apogee altitude
625.913 km
Perigee altitude
618.583 km
Semi-major axis
7,000.385 km
Eccentricity
0.00052
Inclination
28.9957°
RAAN
96.8177°
Arg. of periapsis
71.9897°
True anomaly
288.06968°
Mean anomaly
288.1267°
Eccentric anomaly
288.09819°
Mean motion
3.70561 °/min
Orbital period
97.15 mins
BSTAR
0.00010557
Loading maneuver chart data...
Computing Atmospheric mass density...
Loading historical data...
Loading historical data...
Loading historical data...
Loading historical data...
Loading historical data...
Loading historical data...
Loading historical data...
Other satellites on launch #116 in the year 2024 (2024-06-22 UTC)

Documentation

Showing up to 5 results
|